When you browse on this site, cookies collect data to enhance your experience and personalize the content and advertising you see.
Visit our Privacy Policy to learn more. By continuing to use the site, you agree to this use of cookies and data.
  • In Netherlands
  • List of Countries
  • For 7 days
  • Water Temperature
  • Weather Map
  • Weather Widgets
  • user-avatar
    Login

    Hourly Weather Jambol

    Today, 20 September, Friday

    Time Temperature Precipitation Wind Pressure Humidity
    00:00 +14°C° 0.3 mm 3 mps 753 mmHg 76%
    01:00 +15°C° 0.3 mm 2 mps 752 mmHg 78%
    02:00 +14°C° 0.3 mm 2 mps 752 mmHg 80%
    03:00 +14°C° 0.9 mm 2 mps 752 mmHg 83%
    04:00 +13°C° 0.9 mm 3 mps 752 mmHg 85%
    05:00 +12°C° 0.9 mm 3 mps 752 mmHg 87%
    06:00 +12°C° 0.4 mm 3 mps 753 mmHg 84%
    07:00 +12°C° 0.4 mm 3 mps 753 mmHg 81%
    08:00 +12°C° 0.4 mm 3 mps 753 mmHg 78%
    09:00 +13°C° 0 mm 3 mps 753 mmHg 70%
    10:00 +14°C° 0 mm 3 mps 753 mmHg 62%
    11:00 +16°C° 0 mm 3 mps 754 mmHg 54%
    12:00 +17°C° 0 mm 4 mps 754 mmHg 52%
    13:00 +18°C° 0 mm 4 mps 753 mmHg 50%
    14:00 +19°C° 0 mm 5 mps 753 mmHg 48%
    15:00 +19°C° 0 mm 5 mps 753 mmHg 46%
    16:00 +19°C° 0 mm 4 mps 753 mmHg 44%
    17:00 +19°C° 0 mm 4 mps 753 mmHg 41%
    18:00 +17°C° 0 mm 3 mps 754 mmHg 44%
    19:00 +16°C° 0 mm 3 mps 754 mmHg 47%
    20:00 +14°C° 0 mm 2 mps 755 mmHg 50%
    21:00 +14°C° 0 mm 2 mps 755 mmHg 49%
    22:00 +13°C° 0 mm 1 mps 755 mmHg 49%
    23:00 +13°C° 0 mm 1 mps 755 mmHg 48%

    Tomorrow, 21 September, Saturday

    Time Temperature Precipitation Wind Pressure Humidity
    00:00 +12°C° 0 mm 1 mps 755 mmHg 48%
    01:00 +12°C° 0 mm 1 mps 756 mmHg 49%
    02:00 +11°C° 0 mm 0 mps 756 mmHg 49%
    03:00 +10°C° 0 mm 0 mps 756 mmHg 50%
    04:00 +10°C° 0 mm 0 mps 756 mmHg 51%
    05:00 +10°C° 0 mm 0 mps 756 mmHg 52%
    06:00 +11°C° 0 mm 0 mps 756 mmHg 48%
    07:00 +13°C° 0 mm 0 mps 757 mmHg 43%
    08:00 +14°C° 0 mm 0 mps 757 mmHg 39%
    09:00 +16°C° 0 mm 0 mps 757 mmHg 35%
    10:00 +20°C° 0 mm 1 mps 757 mmHg 31%
    11:00 +22°C° 0 mm 1 mps 757 mmHg 27%
    12:00 +22°C° 0 mm 1 mps 757 mmHg 26%
    13:00 +23°C° 0 mm 1 mps 757 mmHg 25%
    14:00 +23°C° 0 mm 1 mps 756 mmHg 23%
    15:00 +23°C° 0 mm 1 mps 756 mmHg 24%
    16:00 +23°C° 0 mm 2 mps 756 mmHg 25%
    17:00 +21°C° 0 mm 2 mps 756 mmHg 26%
    18:00 +19°C° 0 mm 2 mps 756 mmHg 36%
    19:00 +17°C° 0 mm 2 mps 756 mmHg 46%
    20:00 +15°C° 0 mm 2 mps 756 mmHg 55%
    21:00 +14°C° 0 mm 2 mps 756 mmHg 58%
    22:00 +13°C° 0 mm 1 mps 757 mmHg 62%
    23:00 +13°C° 0 mm 1 mps 757 mmHg 65%

    Day after tomorrow, 22 September, Sunday

    Time Temperature Precipitation Wind Pressure Humidity
    00:00 +11°C° 0 mm 0 mps 757 mmHg 66%
    01:00 +11°C° 0 mm 0 mps 756 mmHg 66%
    02:00 +11°C° 0 mm 0 mps 756 mmHg 67%
    03:00 +11°C° 0 mm 0 mps 756 mmHg 68%
    04:00 +10°C° 0 mm 0 mps 756 mmHg 69%
    05:00 +10°C° 0 mm 0 mps 756 mmHg 69%
    06:00 +11°C° 0 mm 0 mps 756 mmHg 64%
    07:00 +13°C° 0 mm 0 mps 756 mmHg 58%
    08:00 +14°C° 0 mm 0 mps 756 mmHg 53%
    09:00 +18°C° 0 mm 1 mps 756 mmHg 46%
    10:00 +20°C° 0 mm 1 mps 756 mmHg 40%
    11:00 +22°C° 0 mm 1 mps 756 mmHg 33%
    12:00 +23°C° 0 mm 1 mps 755 mmHg 31%
    13:00 +24°C° 0 mm 1 mps 755 mmHg 28%
    14:00 +25°C° 0 mm 1 mps 754 mmHg 25%
    15:00 +24°C° 0 mm 2 mps 754 mmHg 27%
    16:00 +24°C° 0 mm 2 mps 753 mmHg 28%
    17:00 +22°C° 0 mm 3 mps 753 mmHg 30%
    18:00 +20°C° 0 mm 2 mps 753 mmHg 40%
    19:00 +18°C° 0 mm 2 mps 753 mmHg 50%
    20:00 +16°C° 0 mm 2 mps 753 mmHg 61%
    21:00 +15°C° 0 mm 2 mps 753 mmHg 64%
    22:00 +14°C° 0 mm 1 mps 753 mmHg 67%
    23:00 +14°C° 0 mm 1 mps 753 mmHg 71%

    23 September, Monday

    Time Temperature Precipitation Wind Pressure Humidity
    00:00 +13°C° 0 mm 1 mps 753 mmHg 72%
    01:00 +12°C° 0 mm 0 mps 753 mmHg 73%
    02:00 +12°C° 0 mm 0 mps 753 mmHg 74%
    03:00 +11°C° 0 mm 0 mps 753 mmHg 76%
    04:00 +11°C° 0 mm 0 mps 753 mmHg 77%
    05:00 +11°C° 0 mm 0 mps 752 mmHg 78%
    06:00 +13°C° 0 mm 1 mps 752 mmHg 72%
    07:00 +15°C° 0 mm 1 mps 752 mmHg 67%
    08:00 +16°C° 0 mm 1 mps 752 mmHg 61%
    09:00 +19°C° 0 mm 1 mps 752 mmHg 53%
    10:00 +20°C° 0 mm 2 mps 752 mmHg 46%
    11:00 +24°C° 0 mm 2 mps 751 mmHg 38%
    12:00 +25°C° 0 mm 2 mps 751 mmHg 34%
    13:00 +26°C° 0 mm 2 mps 750 mmHg 30%
    14:00 +27°C° 0 mm 2 mps 749 mmHg 26%
    15:00 +27°C° 0 mm 3 mps 749 mmHg 28%
    16:00 +27°C° 0 mm 3 mps 749 mmHg 30%
    17:00 +26°C° 0 mm 3 mps 749 mmHg 32%
    18:00 +24°C° 0 mm 3 mps 749 mmHg 41%
    19:00 +21°C° 0 mm 2 mps 749 mmHg 51%
    20:00 +19°C° 0 mm 2 mps 749 mmHg 61%
    21:00 +18°C° 0 mm 2 mps 748 mmHg 63%
    22:00 +18°C° 0 mm 2 mps 748 mmHg 64%
    23:00 +17°C° 0 mm 2 mps 748 mmHg 66%

    24 September, Tuesday

    Time Temperature Precipitation Wind Pressure Humidity
    00:00 +18°C° 0 mm 1 mps 748 mmHg 67%
    01:00 +18°C° 0 mm 1 mps 747 mmHg 68%
    02:00 +16°C° 0 mm 1 mps 747 mmHg 68%
    03:00 +16°C° 0 mm 1 mps 747 mmHg 70%
    04:00 +16°C° 0 mm 1 mps 746 mmHg 71%
    05:00 +16°C° 0 mm 1 mps 746 mmHg 72%
    06:00 +18°C° 0 mm 1 mps 746 mmHg 68%
    07:00 +19°C° 0 mm 1 mps 745 mmHg 64%
    08:00 +20°C° 0 mm 1 mps 745 mmHg 61%
    09:00 +21°C° 0 mm 2 mps 745 mmHg 55%
    10:00 +24°C° 0 mm 3 mps 745 mmHg 49%
    11:00 +26°C° 0 mm 3 mps 745 mmHg 43%
    12:00 +27°C° 0 mm 3 mps 745 mmHg 43%
    13:00 +27°C° 0 mm 4 mps 744 mmHg 43%
    14:00 +27°C° 0 mm 4 mps 744 mmHg 44%
    15:00 +26°C° 0 mm 3 mps 744 mmHg 48%
    16:00 +25°C° 0 mm 2 mps 743 mmHg 52%
    17:00 +24°C° 0 mm 1 mps 743 mmHg 56%
    18:00 +23°C° 0 mm 1 mps 744 mmHg 57%
    19:00 +23°C° 0 mm 1 mps 744 mmHg 58%
    20:00 +22°C° 0 mm 1 mps 744 mmHg 59%
    21:00 +22°C° 0 mm 1 mps 744 mmHg 59%
    22:00 +20°C° 0 mm 2 mps 744 mmHg 59%
    23:00 +20°C° 0 mm 2 mps 745 mmHg 59%

    25 September, Wednesday

    Time Temperature Precipitation Wind Pressure Humidity
    00:00 +19°C° 0 mm 2 mps 745 mmHg 62%
    01:00 +19°C° 0 mm 2 mps 745 mmHg 64%
    02:00 +18°C° 0 mm 2 mps 744 mmHg 67%
    03:00 +18°C° 0 mm 2 mps 745 mmHg 69%
    04:00 +18°C° 0 mm 2 mps 745 mmHg 71%
    05:00 +17°C° 0 mm 2 mps 745 mmHg 73%
    06:00 +18°C° 0 mm 2 mps 745 mmHg 71%
    07:00 +18°C° 0 mm 2 mps 746 mmHg 68%
    08:00 +19°C° 0 mm 2 mps 746 mmHg 66%
    09:00 +20°C° 0 mm 3 mps 746 mmHg 59%
    10:00 +22°C° 0 mm 3 mps 746 mmHg 53%
    11:00 +24°C° 0 mm 3 mps 747 mmHg 47%
    12:00 +25°C° 0 mm 4 mps 746 mmHg 45%
    13:00 +26°C° 0 mm 4 mps 746 mmHg 42%
    14:00 +27°C° 0 mm 4 mps 746 mmHg 40%
    15:00 +26°C° 0 mm 4 mps 746 mmHg 43%
    16:00 +25°C° 0 mm 5 mps 746 mmHg 46%
    17:00 +25°C° 0 mm 5 mps 746 mmHg 49%
    18:00 +22°C° 0 mm 4 mps 747 mmHg 57%
    19:00 +20°C° 0 mm 3 mps 747 mmHg 65%
    20:00 +18°C° 0 mm 2 mps 748 mmHg 72%
    21:00 +18°C° 0 mm 2 mps 748 mmHg 75%
    22:00 +17°C° 0 mm 2 mps 748 mmHg 79%
    23:00 +18°C° 0 mm 1 mps 748 mmHg 82%
    Show more